When you browse on this site, cookies collect data to enhance your experience and personalize the content and advertising you see.
Visit our Privacy Policy to learn more. By continuing to use the site, you agree to this use of cookies and data.
  • In Hungary
  • List of Countries
  • For 7 days
  • Water Temperature
  • Satellite Maps
  • Weather Map
  • News
  • Weather Widgets
  • user-avatar
    Login

    Hourly Weather Dinagepoor

    Today, 11 December, Tuesday

    Time Temperature Precipitation Wind Pressure Humidity
    00:00 +20°C° 0 mm 2 mps 757 mmHg 54%
    01:00 +19°C° 0 mm 2 mps 757 mmHg 56%
    02:00 +19°C° 0 mm 2 mps 757 mmHg 57%
    03:00 +18°C° 0 mm 2 mps 757 mmHg 58%
    04:00 +18°C° 0 mm 2 mps 757 mmHg 58%
    05:00 +18°C° 0 mm 2 mps 757 mmHg 58%
    06:00 +17°C° 0 mm 2 mps 757 mmHg 58%
    07:00 +18°C° 0 mm 2 mps 758 mmHg 54%
    08:00 +20°C° 0 mm 3 mps 758 mmHg 51%
    09:00 +21°C° 0 mm 3 mps 759 mmHg 47%
    10:00 +24°C° 0 mm 3 mps 759 mmHg 45%
    11:00 +25°C° 0 mm 3 mps 759 mmHg 44%
    12:00 +27°C° 0 mm 3 mps 759 mmHg 42%
    13:00 +27°C° 0 mm 2 mps 758 mmHg 41%
    14:00 +27°C° 0 mm 1 mps 757 mmHg 40%
    15:00 +27°C° 0 mm 1 mps 757 mmHg 39%
    16:00 +26°C° 0 mm 1 mps 757 mmHg 42%
    17:00 +25°C° 0 mm 1 mps 757 mmHg 45%
    18:00 +24°C° 0 mm 1 mps 757 mmHg 47%
    19:00 +23°C° 0 mm 1 mps 757 mmHg 50%
    20:00 +23°C° 0 mm 1 mps 757 mmHg 52%
    21:00 +21°C° 0 mm 2 mps 758 mmHg 54%
    22:00 +21°C° 0 mm 2 mps 758 mmHg 55%
    23:00 +20°C° 0 mm 2 mps 758 mmHg 57%

    Tomorrow, 12 December, Wednesday

    Time Temperature Precipitation Wind Pressure Humidity
    00:00 +20°C° 0 mm 2 mps 758 mmHg 59%
    01:00 +19°C° 0 mm 2 mps 758 mmHg 59%
    02:00 +19°C° 0 mm 2 mps 758 mmHg 59%
    03:00 +18°C° 0 mm 2 mps 758 mmHg 60%
    04:00 +18°C° 0 mm 2 mps 758 mmHg 57%
    05:00 +17°C° 0 mm 2 mps 758 mmHg 55%
    06:00 +17°C° 0 mm 2 mps 758 mmHg 52%
    07:00 +18°C° 0 mm 2 mps 759 mmHg 47%
    08:00 +20°C° 0 mm 3 mps 759 mmHg 43%
    09:00 +21°C° 0 mm 3 mps 760 mmHg 38%
    10:00 +24°C° 0 mm 3 mps 760 mmHg 36%
    11:00 +25°C° 0 mm 3 mps 760 mmHg 34%
    12:00 +27°C° 0 mm 3 mps 759 mmHg 32%
    13:00 +27°C° 0 mm 3 mps 759 mmHg 32%
    14:00 +28°C° 0 mm 2 mps 758 mmHg 31%
    15:00 +28°C° 0 mm 2 mps 757 mmHg 30%
    16:00 +26°C° 0 mm 2 mps 757 mmHg 33%
    17:00 +25°C° 0 mm 2 mps 757 mmHg 36%
    18:00 +24°C° 0 mm 2 mps 758 mmHg 39%
    19:00 +23°C° 0 mm 2 mps 758 mmHg 40%
    20:00 +21°C° 0 mm 2 mps 759 mmHg 41%
    21:00 +21°C° 0 mm 2 mps 759 mmHg 43%
    22:00 +20°C° 0 mm 2 mps 759 mmHg 44%
    23:00 +20°C° 0 mm 2 mps 759 mmHg 46%

    Day after tomorrow, 13 December, Thursday

    Time Temperature Precipitation Wind Pressure Humidity
    00:00 +19°C° 0 mm 2 mps 759 mmHg 48%
    01:00 +19°C° 0 mm 2 mps 759 mmHg 48%
    02:00 +18°C° 0 mm 2 mps 759 mmHg 49%
    03:00 +18°C° 0 mm 2 mps 759 mmHg 49%
    04:00 +17°C° 0 mm 2 mps 759 mmHg 48%
    05:00 +17°C° 0 mm 2 mps 759 mmHg 47%
    06:00 +17°C° 0 mm 2 mps 759 mmHg 46%
    07:00 +18°C° 0 mm 2 mps 760 mmHg 43%
    08:00 +19°C° 0 mm 3 mps 761 mmHg 40%
    09:00 +21°C° 0 mm 3 mps 761 mmHg 37%
    10:00 +24°C° 0 mm 3 mps 761 mmHg 34%
    11:00 +25°C° 0 mm 4 mps 761 mmHg 31%
    12:00 +27°C° 0 mm 4 mps 760 mmHg 28%
    13:00 +27°C° 0 mm 3 mps 760 mmHg 27%
    14:00 +28°C° 0 mm 3 mps 759 mmHg 26%
    15:00 +28°C° 0 mm 3 mps 758 mmHg 25%
    16:00 +27°C° 0 mm 3 mps 758 mmHg 28%
    17:00 +25°C° 0 mm 2 mps 758 mmHg 30%
    18:00 +23°C° 0 mm 2 mps 758 mmHg 33%
    19:00 +23°C° 0 mm 2 mps 759 mmHg 34%
    20:00 +22°C° 0 mm 1 mps 759 mmHg 36%
    21:00 +21°C° 0 mm 1 mps 760 mmHg 37%
    22:00 +21°C° 0 mm 1 mps 760 mmHg 38%
    23:00 +20°C° 0 mm 1 mps 760 mmHg 39%

    14 December, Friday

    Time Temperature Precipitation Wind Pressure Humidity
    00:00 +20°C° 0 mm 1 mps 760 mmHg 41%
    01:00 +20°C° 0 mm 1 mps 760 mmHg 41%
    02:00 +18°C° 0 mm 2 mps 760 mmHg 42%
    03:00 +18°C° 0 mm 2 mps 759 mmHg 42%
    04:00 +17°C° 0 mm 2 mps 759 mmHg 43%
    05:00 +17°C° 0 mm 2 mps 759 mmHg 44%
    06:00 +16°C° 0 mm 2 mps 760 mmHg 44%
    07:00 +18°C° 0 mm 2 mps 760 mmHg 41%
    08:00 +19°C° 0 mm 2 mps 761 mmHg 38%
    09:00 +21°C° 0 mm 2 mps 762 mmHg 35%
    10:00 +24°C° 0 mm 2 mps 761 mmHg 31%
    11:00 +25°C° 0 mm 2 mps 761 mmHg 28%
    12:00 +27°C° 0 mm 3 mps 761 mmHg 24%
    13:00 +28°C° 0 mm 3 mps 760 mmHg 23%
    14:00 +28°C° 0 mm 3 mps 759 mmHg 22%
    15:00 +28°C° 0 mm 3 mps 759 mmHg 21%
    16:00 +27°C° 0 mm 2 mps 759 mmHg 24%
    17:00 +25°C° 0 mm 2 mps 759 mmHg 26%
    18:00 +23°C° 0 mm 2 mps 759 mmHg 28%
    19:00 +23°C° 0 mm 2 mps 760 mmHg 29%
    20:00 +21°C° 0 mm 2 mps 760 mmHg 30%
    21:00 +20°C° 0 mm 2 mps 761 mmHg 31%
    22:00 +20°C° 0 mm 2 mps 761 mmHg 32%
    23:00 +19°C° 0 mm 2 mps 761 mmHg 33%

    15 December, Saturday

    Time Temperature Precipitation Wind Pressure Humidity
    00:00 +19°C° 0 mm 2 mps 761 mmHg 34%
    01:00 +18°C° 0 mm 2 mps 760 mmHg 34%
    02:00 +18°C° 0 mm 2 mps 760 mmHg 35%
    03:00 +17°C° 0 mm 2 mps 760 mmHg 35%
    04:00 +17°C° 0 mm 2 mps 760 mmHg 35%
    05:00 +16°C° 0 mm 2 mps 760 mmHg 35%
    06:00 +16°C° 0 mm 2 mps 760 mmHg 35%
    07:00 +17°C° 0 mm 2 mps 761 mmHg 33%
    08:00 +19°C° 0 mm 2 mps 762 mmHg 31%
    09:00 +20°C° 0 mm 2 mps 762 mmHg 29%
    10:00 +23°C° 0 mm 2 mps 762 mmHg 27%
    11:00 +25°C° 0 mm 3 mps 762 mmHg 24%
    12:00 +27°C° 0 mm 3 mps 761 mmHg 21%
    13:00 +27°C° 0 mm 3 mps 761 mmHg 21%
    14:00 +28°C° 0 mm 2 mps 760 mmHg 21%
    15:00 +28°C° 0 mm 2 mps 760 mmHg 21%
    16:00 +26°C° 0 mm 2 mps 760 mmHg 24%
    17:00 +25°C° 0 mm 2 mps 760 mmHg 26%
    18:00 +23°C° 0 mm 1 mps 760 mmHg 29%
    19:00 +23°C° 0 mm 1 mps 761 mmHg 31%
    20:00 +22°C° 0 mm 1 mps 761 mmHg 32%
    21:00 +21°C° 0 mm 1 mps 762 mmHg 34%
    22:00 +20°C° 0 mm 2 mps 762 mmHg 36%
    23:00 +19°C° 0 mm 2 mps 762 mmHg 38%

    16 December, Sunday

    Time Temperature Precipitation Wind Pressure Humidity
    00:00 +19°C° 0 mm 2 mps 762 mmHg 39%
    01:00 +18°C° 0 mm 2 mps 762 mmHg 41%
    02:00 +18°C° 0 mm 2 mps 761 mmHg 42%
    03:00 +17°C° 0 mm 2 mps 761 mmHg 43%
    04:00 +17°C° 0 mm 2 mps 761 mmHg 43%
    05:00 +17°C° 0 mm 2 mps 761 mmHg 42%
    06:00 +17°C° 0 mm 2 mps 761 mmHg 42%
    07:00 +18°C° 0 mm 2 mps 762 mmHg 41%
    08:00 +19°C° 0 mm 3 mps 762 mmHg 39%
    09:00 +20°C° 0 mm 3 mps 763 mmHg 37%
    10:00 +22°C° 0 mm 3 mps 762 mmHg 34%
    11:00 +24°C° 0 mm 3 mps 762 mmHg 31%
    12:00 +26°C° 0 mm 3 mps 761 mmHg 28%
    13:00 +27°C° 0 mm 3 mps 761 mmHg 27%
    14:00 +27°C° 0 mm 2 mps 760 mmHg 26%
    15:00 +28°C° 0 mm 2 mps 759 mmHg 26%
    16:00 +27°C° 0 mm 2 mps 759 mmHg 28%
    17:00 +26°C° 0 mm 2 mps 759 mmHg 30%
    18:00 +24°C° 0 mm 2 mps 759 mmHg 32%
    19:00 +24°C° 0 mm 2 mps 760 mmHg 34%
    20:00 +23°C° 0 mm 2 mps 760 mmHg 35%
    21:00 +21°C° 0 mm 2 mps 761 mmHg 37%
    22:00 +21°C° 0 mm 2 mps 761 mmHg 38%
    23:00 +20°C° 0 mm 2 mps 761 mmHg 39%
    Show more